This demonstration page uses our WeatherBlox Daily Observations layout. Learn more.

36.17497, -115.13722

Hourly Observations for June 8, 2015

Temp ( °F °C ) Dew Point ( °F °C ) Humidity (%) Winds ( mph kmh ) Pressure ( in mb ) Visibility ( mi km ) Precip ( " mm )
12:53 am 00:53 Clear 80 26.7 33 0.6 18 18 WNW 5 7 29.9 1013 10 16.0934 0 0
1:53 am 01:53 Clear 78 25.6 33 0.6 19 19 WNW 5 7 29.91 1013 10 16.0934 0 0
2:53 am 02:53 Clear 77 25 37 2.8 24 24 WNW 6 9 29.92 1013 10 16.0934 0 0
3:53 am 03:53 Clear 77 25 35 1.7 22 22 NW 6 9 29.92 1013 10 16.0934 0 0
4:53 am 04:53 Clear 76 24.4 34 1.1 22 22 NW 6 9 29.93 1014 10 16.0934 0 0
5:53 am 05:53 Sunny 75 23.9 36 2.2 24 24 NW 5 7 29.94 1014 10 16.0934 0 0
6:53 am 06:53 Sunny 77 25 36 2.2 23 23 SSE 5 7 29.95 1014 10 16.0934 0 0
7:53 am 07:53 Sunny 84 28.9 33 0.6 16 16 N 5 7 29.96 1015 10 16.0934 0 0
8:53 am 08:53 Sunny 87 30.6 32 0 14 14 Calm 29.97 1015 10 16.0934 0 0
9:53 am 09:53 Sunny 89 31.7 33 0.6 14 14 Calm 29.96 1015 10 16.0934 0 0
10:53 am 10:53 Sunny 91 32.8 32 0 12 12 NE 5 7 29.95 1014 10 16.0934 0 0
11:53 am 11:53 Sunny 93 33.9 31 -0.6 11 11 undefined N/A 29.93 1014 10 16.0934 0 0
12:53 pm 12:53 Sunny 95 35 29 -1.7 9 9 S 7 11 29.91 1013 10 16.0934 0 0
1:53 pm 13:53 Sunny 96 35.6 24 -4.4 7 7 VRB 3 6 29.9 1012 10 16.0934 0 0
2:53 pm 14:53 Sunny 97 36.1 25 -3.9 7 7 VRB 3 6 29.88 1012 10 16.0934 0 0
3:53 pm 15:53 Sunny 98 36.7 24 -4.4 7 7 SSW 7 11 29.85 1011 10 16.0934 0 0
4:53 pm 16:53 Sunny 98 36.7 24 -4.4 7 7 Calm 29.83 1010 10 16.0934 0 0
5:53 pm 17:53 Sunny 98 36.7 24 -4.4 7 7 E 5 7 29.82 1010 10 16.0934 0 0
6:53 pm 18:53 Sunny 97 36.1 24 -4.4 7 7 NNE 5 7 29.82 1010 10 16.0934 0 0
7:53 pm 19:53 Sunny 96 35.6 24 -4.4 7 7 NNE 5 7 29.82 1010 10 16.0934 0 0
8:53 pm 20:53 Clear 95 35 25 -3.9 8 8 Calm 29.83 1010 10 16.0934 0 0
9:53 pm 21:53 Clear 90 32.2 31 -0.6 12 12 NW 5 7 29.84 1011 10 16.0934 0 0
10:53 pm 22:53 Clear 87 30.6 34 1.1 15 15 WNW 5 7 29.85 1011 10 16.0934 0 0
11:53 pm 23:53 Clear 83 28.3 34 1.1 17 17 NW 9 15 29.83 1010 10 16.0934 0 0

Powered by AerisWeather